Погода в Дузе

Тунис     33°27′42″N   9°01′41″E
темп.,
°C
ветер,
м/с
пор.,
м/с
влажн.,
%
обл.,
%
осадки,
мм/ч
давл.,
гПа
погр.,
м
15 августа, пн
пн1501:00+31ююз11200 0.0 100912
04:00+29юз01324 0.0 100911
07:00+32ююз33195 0.0 101022
10:00+39зюз69121 0.0 1010816
13:00+44зюз9990 0.0 10082916
16:00+45зюз8990 0.0 10064117
19:00+40з45121 0.0 100627
22:00+36юз44145 0.0 100915
16 августа, вт
вт1601:00+30св10184324 0.0 1011410
04:00+29всв612435 0.0 1010228
07:00+29всв49470 0.0 1011209
10:00+39вюв66240 0.0 1011706
13:00+44юз24120 0.0 10102921
16:00+45зсз45103 0.0 10084831
19:00+39с12121 0.0 100913
22:00+35вюв611275 0.0 1011133
17 августа, ср
ср1701:00+30всв711575 0.0 1011137
04:00+29всв585648 0.0 101097
07:00+31в59438 0.0 1010196
10:00+41юв46142 0.0 1011938
13:00+46юз4595 0.0 10095312
16:00+46з34770 0.0 10075407
19:00+39св341416 0.0 100734
22:00+36юв7132188 0.0 1009192
18 августа, чт
чт1801:00+35юв815180 0.0 1008183
04:00+34ююв611170 0.0 1008139
07:00+33юв472051 0.0 1009137
10:00+43ююз891094 0.0 10101073
13:00+46зюз6573 0.0 10084054
16:00+47зюз4466 0.0 10065653
19:00+38з11108 0.0 100612
22:00+36юв55164 0.0 100842
19 августа, пт
пт1901:00+34юв714185 0.0 1007161
04:00+32св562144 0.0 100855
07:00+30всв1012488 0.0 1010235
10:00+37в87302 0.0 10111233
13:00+42всв98200 0.0 10091969
16:00+36всв1312390 0.0 1009836
19:00+31всв1118470 0.0 1009574
22:00+29в11195612 0.0 1012560